1394496025761,1.23114
1394496085761,1.22039
1394496145761,1.21183
1394496205761,1.21112
1394496265761,1.19916
1394496325761,1.19402
1394496385761,1.18592
1394496445761,1.19803
1394496505761,1.18218
1394496565761,1.19032
1394496625760,1.18559
1394496685760,1.18964
1394496745760,1.17382
1394496805761,1.18231
1394496865761,1.17783
1394496925761,1.17034
1394496985761,1.16905
1394497045761,1.16100
1394497105761,1.16562
1394497165761,1.15818
1394497225761,1.15103
1394497285761,1.16232
1394497345761,1.14647
1394497405761,1.15360
1394497465761,1.15966
1394497525761,1.15114
1394497585761,1.14636
1394497645761,1.13965
1394497705761,1.14678
1394497765761,1.15033
1394497825761,1.13444
1394497885761,1.13785
1394497945761,1.13997
1394498005760,1.13320
1394498065760,1.12563
1394498125761,1.13545
1394498185761,1.13204
1394498245761,1.13143
1394498305761,1.13174
1394498365761,1.13505
1394498425761,1.14027
1394498485761,1.12761
1394498545761,1.12478
1394498605761,1.12848
1394498665761,1.12798
1394498725761,1.12257
1394498785761,1.13173
1394498845761,1.12687
1394498905761,1.13032
1394498965761,1.12886
1394499025761,1.12125
1394499085761,1.13042
1394499145761,1.12325
1394499205761,1.12931
1394499265761,1.12888
1394499325760,1.13121
1394499385760,1.12867
1394499445760,1.12803
1394499505761,1.13413
1394499565761,1.12907
1394499625772,1.12733
1394499685772,1.13414
1394499745772,1.11845
1394499805772,1.12051
1394499865772,1.12863
1394499925772,1.11585
1394499985772,1.12558
1394500045772,1.11923
1394500105772,1.11644
1394500165772,1.12114
1394500225772,1.12538
1394500285772,1.12117
1394500345772,1.12252
1394500405772,1.12746
1394500465772,1.12341
1394500525772,1.13252
1394500585772,1.14126
1394500645772,1.13016
1394500705772,1.12491
1394500765772,1.12282
1394500825772,1.12426
1394500885772,1.13312
1394500945772,1.12969
1394501005772,1.13266
1394501065772,1.12297
1394501125772,1.12647
1394501185772,1.12155
1394501245772,1.12835
1394501305772,1.11771
1394501365772,1.12253
1394501425772,1.12928
1394501485772,1.13085
1394501545772,1.12616
1394501605772,1.13570
1394501665772,1.13680
1394501725772,1.12963
1394501785772,1.13803
1394501845772,1.13227
1394501905772,1.13421
1394501965772,1.13936
1394502025772,1.14391
1394502085772,1.13993
1394502145772,1.15773
1394502205772,1.14475
1394502265772,1.15531
1394502325772,1.15700
1394502385772,1.15209
1394502445772,1.14653
1394502505772,1.16305
1394502565772,1.16070
1394502625772,1.15025
1394502685772,1.15680
1394502745772,1.15089
1394502805772,1.16105
1394502865772,1.15005
1394502925772,1.15857
1394502985772,1.16532
1394503045772,1.15298
1394503105772,1.16724
1394503165772,1.16792
1394503225784,1.16384
1394503285784,1.15905
1394503345784,1.16846
1394503405784,1.16838
1394503465784,1.16063
1394503525784,1.16719
1394503585784,1.16777
1394503645783,1.17215
1394503705783,1.17106
1394503765783,1.18082
1394503825783,1.17434
1394503885783,1.18682
1394503945783,1.18547
1394504005783,1.19979
1394504065783,1.18573
1394504125784,1.18475
1394504185784,1.19072
1394504245784,1.20914
1394504305783,1.18932
1394504365783,1.20319
1394504425784,1.20435
1394504485784,1.21227
1394504545784,1.20290
1394504605784,1.19374
1394504665784,1.19292
1394504725784,1.19054
1394504785784,1.19433
1394504845784,1.20401
1394504905784,1.19671
1394504965783,1.19359
1394505025783,1.18376
1394505085783,1.18589
1394505145783,1.19132
1394505205783,1.18220
1394505265783,1.18227
1394505325783,1.18610
1394505385783,1.18440
1394505445784,1.17363
1394505505784,1.17491
1394505565784,1.16528
1394505625783,1.15298
1394505685783,1.15846
1394505745783,1.16269
1394505805784,1.16648
1394505865784,1.15582
1394505925784,1.15315
1394505985784,1.15166
1394506045784,1.15217
1394506105784,1.14428
1394506165784,1.14506
1394506225784,1.15618
1394506285784,1.14038
1394506345783,1.14153
1394506405783,1.13972
1394506465783,1.13990
1394506525783,1.14742
1394506585783,1.14580
1394506645783,1.13288
1394506705783,1.14580
1394506765783,1.13777
1394506825795,1.13011
1394506885795,1.13879
1394506945795,1.12787
1394507005795,1.13195
1394507065795,1.13250
1394507125795,1.13934
1394507185795,1.13309
1394507245795,1.13883
1394507305795,1.12991
1394507365795,1.11991
1394507425795,1.13443
1394507485795,1.11944
1394508025795,1.11409
1394508085795,1.10966
1394508145795,1.11616
1394508205795,1.11176
1394508265795,1.10645
1394508325795,1.11540
1394508385795,1.10724
1394508445795,1.11481
1394508505795,1.10815
1394508565795,1.10502
1394508625795,1.10415
1394508685795,1.10435
1394508745795,1.10139
1394508805795,1.12574
1394508865795,1.10547
1394508925795,1.11546
1394508985795,1.11523
1394509045795,1.12080
1394509105795,1.12225
1394509165795,1.11651
1394509225795,1.12953
1394509285795,1.12908
1394509345795,1.13778
1394509405795,1.13623
1394509465795,1.14391
1394509525795,1.13730
1394509585795,1.15054
1394509645795,1.17055
1394509705795,1.19331
1394509765795,1.27178
1394509825795,1.42232
1394509885795,1.44743
1394509945795,1.48678
1394510005795,1.49181
1394510065795,1.51208
1394510125795,1.47678
1394510185795,1.44633
1394510245795,1.42842
1394510305795,1.43142
1394510365795,1.44098
1394510425806,1.42707
1394510485806,1.43123
1394510545806,1.41727
1394510605806,1.43614
1394510665806,1.40946
1394510725806,1.39788
1394510785806,1.38669
1394510845806,1.36677
1394510905806,1.35716
1394510965806,1.35480
1394511025806,1.34661
1394511085806,1.33998
1394511145806,1.33680
1394511205806,1.32253
1394511265806,1.31906
1394511325806,1.32435
1394511385806,1.32005
1394511445806,1.32018
1394511505806,1.31954
1394511565806,1.32217
1394511625806,1.32488
1394511685806,1.30157
1394511745806,1.30873
1394511805806,1.30841
1394511865806,1.31241
1394511925806,1.31011
1394511985806,1.30266
1394512045806,1.30414
1394512105806,1.30974
1394512165806,1.31968
1394512225806,1.31908
1394512285806,1.31449
1394512345806,1.31758
1394512405806,1.29301
1394512465806,1.31144
1394512525806,1.30080
1394512585806,1.29267
1394512645806,1.28452
1394512705806,1.29848
1394512765806,1.29397
1394512825806,1.29273
1394512885806,1.28568
1394512945806,1.28911
1394513005806,1.29317
1394513065806,1.29063
1394513125806,1.27817
1394513185806,1.28218
1394513245806,1.29289
1394513305806,1.27873
1394513365806,1.27868
1394513425806,1.27102
1394513485806,1.26684
1394513545806,1.26774
1394513605806,1.26678
1394513665806,1.26708
1394513725806,1.26579
1394513785806,1.25688
1394513845806,1.25184
1394513905806,1.24509
1394513965806,1.24131
1394514025818,1.24118
1394514085818,1.24290
1394514145818,1.22868
1394514205818,1.23176
1394514265818,1.23842
1394514325818,1.23785
1394514385818,1.23411
1394514445818,1.22597
1394514505818,1.23486
1394514565818,1.23317
1394514625818,1.23355
1394514685818,1.22482
1394514745818,1.22279
1394514805818,1.21298
1394514865818,1.22379
1394514925818,1.22301
1394514985818,1.20373
1394515045818,1.20775
1394515105818,1.20826
1394515165818,1.20867
1394515225818,1.20511
1394515285818,1.21007
1394515345818,1.18703
1394515405818,1.19557
1394515465818,1.19445
1394515525818,1.18508
1394515585818,1.18185
1394515645818,1.18118
1394515705818,1.18025
1394515765818,1.17405
1394515825818,1.18708
1394515885818,1.18175
1394515945818,1.19122
1394516005818,1.17741
1394516065818,1.17987
1394516125818,1.17461
1394516185818,1.18246
1394516245818,1.17703
1394516305818,1.17264
1394516365818,1.17272
1394516425818,1.17506
1394516485818,1.18401
1394516545818,1.16904
1394516605818,1.16680
1394516665818,1.17030
1394516725818,1.16829
1394516785818,1.17525
1394516845818,1.17246
1394516905818,1.17123
1394516965818,1.16762
1394517025818,1.16070
1394517085818,1.17959
1394517145818,1.17229
1394517205818,1.16730
1394517265818,1.16819
1394517325818,1.17242
1394517385818,1.17432
1394517445818,1.15688
1394517505818,1.15736
1394517565818,1.17003
1394517625829,1.15958
1394517685829,1.16270
1394517745829,1.15714
1394517805829,1.16028
1394517865829,1.15530
1394517925829,1.17530
1394517985829,1.16410
1394518045829,1.16813
1394518105829,1.18260
1394518165829,1.16901
1394518225829,1.16748
1394518285829,1.16963
1394518345829,1.16750
1394518405829,1.17207
1394518465829,1.17816
1394518525829,1.17121
1394518585829,1.16618
1394518645829,1.18048
1394518705829,1.17845
1394518765829,1.16865
1394518825829,1.16732
1394518885829,1.16518
1394518945829,1.16817
1394519005829,1.16126
1394519065829,1.15350
1394532325872,1.27505
1394532385872,1.27800
1394532445872,1.28456
1394532505872,1.27663
1394532565872,1.27455
1394532625872,1.27729
1394532685872,1.27825
1394532745872,1.27592
1394532805872,1.28958
1394532865872,1.28643
1394532925872,1.28602
1394532985872,1.29173
1394533045872,1.31532
1394533105872,1.32372
1394533165872,1.32802
1394533225872,1.32674
1394533285872,1.31895
1394533345872,1.32511
1394533405872,1.31131
1394533465872,1.30627
1394533525872,1.29350
1394533585872,1.28820
1394533645872,1.29346
1394533705872,1.26078
1394533765872,1.25873
1394533825872,1.26686
1394533885872,1.25530
1394533945872,1.25042
1394534005872,1.25589
1394534065872,1.25703
1394534125872,1.24846
1394534185872,1.24469
1394534245872,1.25860
1394534305872,1.25871
1394534365872,1.26370
1394534425872,1.26396
1394534485872,1.27025
1394534545872,1.28030
1394534605872,1.27214
1394534665872,1.26966
1394534725872,1.27490
1394534785872,1.27891
1394534845872,1.27545
1394534905872,1.28324
1394534965872,1.28530
1394535025872,1.27414
1394535085872,1.28524
1394535145872,1.28473
1394535205872,1.28087
1394535265872,1.27998
1394535325872,1.27092
1394535385872,1.26549
1394535445872,1.26347
1394535505872,1.26386
1394535565872,1.26854
1394535625883,1.25784
1394535685883,1.24686
1394535745883,1.23629
1394535805883,1.24869
1394535865883,1.24590
1394535925883,1.23072
1394535985883,1.23630
1394536045883,1.22628
1394536105883,1.23249
1394536165883,1.23868
1394536225883,1.23018
1394536285883,1.23645
1394536345883,1.23714
1394536405883,1.24666
1394536465883,1.25267
1394536525883,1.23320
1394536585883,1.23747
1394536645883,1.25052
1394536705883,1.24053
1394536765883,1.24559
1394536825883,1.24843
1394536885883,1.25923
1394536945883,1.25154
1394537005883,1.26403
1394537065883,1.26391
1394537125883,1.25762
1394537185883,1.26520
1394537245883,1.26033
1394537305883,1.25173
1394537365883,1.24314
1394537425883,1.24795
1394537485883,1.24327
1394537545883,1.23607
1394537605883,1.24211
1394537665883,1.23183
1394537725883,1.23055
1394537785883,1.22825
1394537845883,1.23147
1394537905883,1.22939
1394537965883,1.21889
1394538025883,1.21906
1394538085883,1.21660
1394538145883,1.22550
1394538205883,1.21447
1394538265883,1.21478
1394538325883,1.20591
1394538385883,1.20469
1394538445883,1.21431
1394538505883,1.20503
1394538565883,1.20912
1394538625883,1.19893
1394538685883,1.20386
1394538745883,1.19123
1394538805883,1.20615
1394538865883,1.20232
1394538925883,1.19362
1394538985883,1.19020
1394539045883,1.20749
1394539105883,1.20408
1394539165883,1.20503
1394539225895,1.20150
1394539285895,1.21774
1394539345895,1.22453
1394539405895,1.23195
1394539465895,1.24336
1394539525895,1.26108
1394539585895,1.28539
1394539645895,1.30810
1394539705895,1.36065
1394539765895,1.39907
1394539825895,1.44180
1394539885895,1.44763
1394539945895,1.46042
1394540005895,1.46251
1394540065895,1.45423
1394540125895,1.44247
1394540185895,1.42394
1394540245895,1.40903
1394540305895,1.40467
1394540365895,1.38820
1394540425895,1.38374
1394540485895,1.39506
1394540545895,1.39461
1394540605895,1.39104
1394540665895,1.39517
1394540725895,1.41274
1394540785895,1.41969
1394540845895,1.42618
1394540905895,1.44391
1394540965895,1.43567
1394541025895,1.43799
1394541085895,1.43735
1394541145895,1.42712
1394541205895,1.42121
1394541265895,1.41421
1394541325895,1.42019
1394541385895,1.41049
1394541445895,1.39477
1394541505895,1.39602
1394541565895,1.39623
1394541625895,1.37831
1394541685895,1.38713
1394541745895,1.36866
1394541805895,1.35361
1394541865895,1.35241
1394541925895,1.34917
1394541985895,1.33747
1394542045895,1.34613
1394542105895,1.32491
1394542165895,1.33412
1394542225895,1.32325
1394542285895,1.30789
1394542345895,1.30860
1394542405895,1.31965
1394542465895,1.30409
1394542525895,1.30573
1394542585895,1.29867
1394542645895,1.29262
1394542705895,1.29201
1394542765895,1.28614
1394542825906,1.28772
1394542885906,1.28906
1394542945906,1.28352
1394543005906,1.27298
1394543065906,1.27614
1394543125906,1.27027
1394543185906,1.26615
1394543245906,1.25807
1394543305906,1.25343
1394543365906,1.25372
1394543425906,1.25181
1394543485906,1.24854
1394543545906,1.24311
1394543605906,1.24267
1394543665906,1.24578
1394543725906,1.24581
1394543785906,1.23457
1394543845906,1.22256
1394543905906,1.21966
1394543965906,1.22707
1394544025906,1.22104
1394544085906,1.22461
1394544145906,1.22484
1394544205906,1.22549
1394544265906,1.23232
1394544325906,1.21945
1394544385906,1.22645
1394544445906,1.22082
1394544505906,1.22507
1394544565906,1.21995
1394544625906,1.21653
1394544685906,1.22066
1394544745906,1.21472
1394544805906,1.22492
1394544865906,1.22790
1394544925906,1.22777
1394544985906,1.20922
1394545045906,1.21370
1394545105906,1.21231
1394545165906,1.22082
1394545225906,1.21407
1394545285906,1.21673
1394545345906,1.22213
1394545405906,1.21078
1394545465906,1.22129
1394545525906,1.21308
1394545585906,1.21056
1394545645906,1.20724
1394545705906,1.21392
1394545765906,1.21744
1394545825906,1.20680
1394545885906,1.20519
1394545945906,1.20741
1394546005906,1.20945
1394546065906,1.19464
1394546125906,1.19768
1394546185906,1.20731
1394546245906,1.20754
1394546305906,1.20213
1394546365906,1.20305
1394546425918,1.21511
1394546485918,1.19651
1394546545918,1.19129
1394546605918,1.19615
1394546665918,1.19068
1394546725918,1.19561
1394546785918,1.18354
1394546845918,1.19265
1394546905918,1.18576
1394546965918,1.18376
1394547025918,1.19479
1394547085918,1.18612
1394547145918,1.17910
1394547205918,1.19276
1394547265918,1.19251
1394547325918,1.19002
1394547385918,1.21075
1394547445918,1.20374
1394547505918,1.21024
1394547565918,1.21258
1394547625918,1.21900
1394547685918,1.22362
1394547745918,1.23102
1394547805918,1.23084
1394547865918,1.23049
1394547925918,1.23383
1394547985918,1.23284
1394548045918,1.24920
1394548105918,1.23534
1394548165918,1.22614
1394548225918,1.23669
1394548285918,1.23027
1394548345918,1.22689
1394548405918,1.22843
1394548465918,1.22105
1394548525918,1.21569
1394548585918,1.22240
1394548645918,1.22170
1394548705918,1.20882
1394548765918,1.20719
1394548825918,1.20587
1394548885918,1.19299
1394548945918,1.19238
1394549005918,1.19906
1394549065918,1.18561
1394549125918,1.19129
1394549185918,1.19414
1394549245918,1.18463
1394549305918,1.18517
1394549365918,1.19065
1394549425918,1.18793
1394549485918,1.19401
1394549545918,1.18348
1394549605918,1.20077
1394549665918,1.19546
1394549725918,1.19288
1394549785918,1.19570
1394549845918,1.19203
1394549905918,1.19445
1394549965918,1.18809
1394550025929,1.18745
1394550085929,1.18426
1394550145929,1.18253
1394550205929,1.19173
1394550265929,1.19290
1394550325929,1.18384
1394550385929,1.18787
1394550445929,1.18641
1394550505929,1.18800
1394550565929,1.18014
1394550625929,1.18310
1394550685929,1.18798
1394550745929,1.18089
1394550805929,1.17637
1394550865929,1.17878
1394550925929,1.18107
1394550985929,1.16871
1394551045929,1.17717
1394551105929,1.18383
1394551165929,1.17436
1394551225929,1.17114
1394551285929,1.18315
1394551345929,1.18763
1394551405929,1.18120
1394551465929,1.19410
1394551525929,1.19053
1394551585929,1.20180
1394551645929,1.19342
1394551705929,1.21129
1394551765929,1.21762
1394551825929,1.22039
1394551885929,1.22294
1394551945929,1.23478
1394552005929,1.25074
1394552065929,1.25489
1394552125929,1.25827
1394552185929,1.26429
1394552245929,1.26223
1394552305929,1.27042
1394552365929,1.26957
1394552425929,1.27780
1394552485929,1.28721
1394552545929,1.28397
1394552605929,1.27767
1394552665929,1.28468
1394552725929,1.29283
1394552785929,1.30097
1394552845929,1.29249
1394552905929,1.30520
1394552965929,1.30429
1394553025929,1.31205
1394553085929,1.31188
1394553145929,1.32708
1394553205929,1.32963
1394553265929,1.31955
1394553325929,1.33727
1394553385929,1.33552
1394553445929,1.34043
1394553505929,1.35530
1394553565929,1.35865
1394553625940,1.37180
1394553685940,1.37454
1394553745940,1.37605
1394553805940,1.38261
1394553865940,1.36834
1394553925940,1.37726
1394553985940,1.37545
1394554045940,1.36833
1394554105940,1.36407
1394554165940,1.37677
1394554225940,1.36274
1394554285940,1.35933
1394554345940,1.36396
1394554405940,1.36026
1394554465940,1.35097
1394554525940,1.36217
1394554585940,1.35391
1394554645940,1.37455
1394554705940,1.34763
1394554765940,1.35192
1394554825940,1.34705
1394554885940,1.34981
1394554945940,1.36192
1394555005940,1.37072
1394555065940,1.37872
1394555125940,1.40034
1394555185940,1.40924
1394555245940,1.43566
1394555305940,1.44857
1394555365940,1.45507
1394555425940,1.45516
1394555485940,1.46362
1394555545940,1.45797
1394555605940,1.46140
1394555665940,1.45734
1394555725940,1.45967
1394555785940,1.47433
1394555845940,1.48402
1394555905940,1.50397
1394555965940,1.49455
1394556025940,1.51493
1394556085940,1.51363
1394556145940,1.51328
1394556205940,1.50441
1394556265940,1.49816
1394556325940,1.49108
1394556385940,1.47353
1394556445940,1.45837
1394556505940,1.45641
1394556565940,1.44360
1394556625940,1.43040
1394556685940,1.42684
1394556745940,1.41050
1394556805940,1.40523
1394556865940,1.38240
1394556925940,1.37613
1394556985940,1.35361
1394557045940,1.35131
1394557105940,1.33067
1394557165940,1.32920
1394557225951,1.30283
1394557285951,1.29470
1394557345951,1.29503
1394557405951,1.28156
1394557465951,1.28274
1394557525951,1.26604
1394557585951,1.26551
1394557645951,1.26980
1394557705951,1.25884
1394557765951,1.25095
1394557825951,1.24021
1394557885951,1.24021
1394557945951,1.24023
1394558005951,1.22965
1394558065951,1.23015
1394558125951,1.22221
1394558185951,1.21405
1394558245951,1.21119
1394558305951,1.21262
1394558365951,1.20069
1394558425951,1.19436
1394558485951,1.19962
1394558545951,1.18851
1394558605951,1.18690
1394558665951,1.17265
1394558725951,1.16997
1394558785951,1.16513
1394558845951,1.16447
1394558905951,1.16768
1394558965951,1.16318
1394559025951,1.15606
1394559085951,1.16386
1394559145951,1.16843
1394559205951,1.15779
1394559265951,1.15383
1394559325951,1.15500
1394559385951,1.15644
1394559445951,1.13933
1394559505951,1.14919
1394559565951,1.15059
1394559625951,1.14738
1394559685951,1.15158
1394559745951,1.14927
1394559805951,1.14729
1394559865951,1.14758
1394559925951,1.14391
1394559985951,1.15108
1394560045951,1.14236
1394560105951,1.13763
1394560165951,1.14011
1394560225951,1.13843
1394560285951,1.14215
1394560345951,1.14019
1394560405951,1.14893
1394560465951,1.15426
1394560525951,1.16173
1394560585951,1.16233
1394560645951,1.15557
1394560705951,1.15888
1394560765951,1.15365
1394560825962,1.15028
1394560885962,1.15308
1394560945962,1.15761
1394561005962,1.14310
1394561065962,1.15132
1394561125962,1.14015
1394561185962,1.13998
1394561245962,1.13869
1394561305962,1.13635
1394561365962,1.14359
1394561425962,1.13508
1394561485962,1.13976
1394561545962,1.12976
1394561605962,1.12306
1394561665962,1.12972
1394561725962,1.13416
1394561785962,1.12974
1394561845962,1.14698
1394561905962,1.14343
1394561965962,1.15331
1394562025962,1.15525
1394562085962,1.16924
1394562145962,1.17051
1394562205962,1.20170
1394562265962,1.22534
1394562325962,1.23374
1394562385962,1.23013
1394562445962,1.22615
1394562505962,1.23653
1394562565962,1.24510
1394562625962,1.25657
1394562685962,1.25441
1394562745962,1.27069
1394562805962,1.27933
1394562865962,1.27946
1394562925962,1.28764
1394562985962,1.28407
1394563045962,1.29302
1394563105962,1.31408
1394563165962,1.30514
1394563225962,1.32214
1394563285962,1.32915
1394563345962,1.32676
1394563405962,1.33600
1394563465962,1.33458
1394563525962,1.34299
1394563585962,1.34047
1394563645962,1.34299
1394563705962,1.34936
1394563765962,1.33956
1394563825962,1.33170
1394563885962,1.32903
1394563945962,1.32446
1394564005962,1.32633
1394564065962,1.31247
1394564125962,1.30675
1394564185962,1.29849
1394564245962,1.28131
1394564305962,1.28003
1394564365962,1.27974
1394564425973,1.26482
1394564485973,1.26133
1394564545973,1.26351
1394564605973,1.25482
1394564665973,1.25266
1394564725973,1.25207
1394564785973,1.23651
1394564845973,1.23815
1394564905973,1.23368
1394564965973,1.23142
1394565025973,1.22820
1394565085973,1.22780
1394565145973,1.22548
1394565205973,1.23052
1394565265973,1.21977
1394565325973,1.22859
1394565385973,1.22821
1394565445973,1.23598
1394565505973,1.22534
1394565565973,1.23882
1394565625973,1.23220
1394565685973,1.26533
1394565745973,1.26285
1394565805973,1.26924
1394565865973,1.25411
1394565925973,1.26886
1394565985973,1.26570
1394566045973,1.26512
1394566105973,1.28234
1394566165973,1.28047
1394566225973,1.27604
1394566285973,1.29221
1394566345973,1.29871
1394566405973,1.30077
1394566465973,1.30932
1394566525973,1.30857
1394566585973,1.31867
1394566645973,1.33424
1394566705973,1.34305
1394566765973,1.33648
1394566825973,1.33520
1394566885973,1.34669
1394566945973,1.34363
1394567005973,1.36241
1394567065973,1.36361
1394567125973,1.37600
1394567185973,1.38090
1394567245973,1.38867
1394567305973,1.39224
1394567365973,1.38882
1394567425973,1.39434
1394567485973,1.39790
1394567545973,1.39975
1394567605973,1.39139
1394567665973,1.38180
1394567725973,1.38028
1394567785973,1.37155
1394567845973,1.36280
1394567905973,1.34830
1394567965973,1.34375
1394568025984,1.34407
1394568085984,1.34140
1394568145984,1.34046
1394568205984,1.33298
1394568265984,1.33048
1394568325984,1.33133
1394568385984,1.32096
1394568445984,1.31201
1394568505984,1.31446
1394568565984,1.31501
1394568625984,1.30773
1394568685984,1.30062
1394568745984,1.30651
1394568805984,1.29154
1394568865984,1.29592
1394568925984,1.29055
1394568985984,1.29028
1394569045984,1.28841
1394569105984,1.28601
1394569165984,1.29114
1394569225984,1.28921
1394569285984,1.28958
1394569345984,1.29285
1394569405984,1.28775
1394569465984,1.28090
1394569525984,1.27102
1394569585984,1.27071
1394569645984,1.26501
1394569705984,1.26866
1394569765984,1.25525
1394569825984,1.25940
1394569885984,1.25865
1394569945984,1.24277
1394570005984,1.24777
1394570065984,1.24500
1394570125984,1.24048
1394570185984,1.24327
1394570245984,1.24026
1394570305984,1.23045
1394570365984,1.22812
1394570425984,1.22454
1394570485984,1.22184
1394570545984,1.22441
1394570605984,1.22589
1394570665984,1.22621
1394570725984,1.21995
1394570785984,1.21314
1394570845984,1.21025
1394570905984,1.20833
1394570965984,1.20448
1394571025984,1.19769
1394571085984,1.20682
1394571145984,1.19366
1394571205984,1.19132
1394571265984,1.20329
1394571325984,1.19703
1394571385984,1.19197
1394571445984,1.19274
1394571505984,1.18416
1394571565984,1.18880
1394571625996,1.18752
1394571685996,1.17191
1394571745996,1.18535
1394571805996,1.17432
1394571865996,1.17299
1394571925996,1.16880
1394571985996,1.17011
1394572045996,1.16119
1394572105996,1.16078
1394572165996,1.15823
1394572225996,1.16084
1394572285996,1.15617
1394572345996,1.15614
1394572405996,1.16516
1394572465996,1.15550
1394572525996,1.15404
1394572585996,1.14325
1394572645996,1.15547
1394572705996,1.14687
1394572765996,1.13528
1394572825996,1.13827
1394572885996,1.13485
1394572945996,1.14964
1394573005996,1.13656
1394573065996,1.13646
1394573125996,1.13261
1394573185996,1.13005
1394573245996,1.13752
1394573305996,1.13300
1394573365996,1.13725
1394573425996,1.13868
1394573485996,1.13339
1394573545996,1.13400
1394573605996,1.13592
1394573665996,1.13031
1394573725996,1.11381
1394573785996,1.12013
1394573845996,1.12179
1394573905996,1.12382
1394573965996,1.12503
1394574025996,1.13265
1394574085996,1.13211
1394574145996,1.13281
1394574205996,1.13962
1394574265996,1.15639
1394574325996,1.15948
1394574385996,1.18534
1394574445996,1.19877
1394574505996,1.22349
1394574565996,1.22615
1394574625996,1.22051
1394574685996,1.22469
1394574745996,1.22545
1394574805996,1.22322
1394574865996,1.23068
1394574925996,1.23314
1394574985996,1.24086
1394575045996,1.25025